Location: Canyon City
(32.5951°N, 116.5278°W)
Time: 02:05:25
(UTC+00:00)

Cosmos 1190 Rocket - Pass Details

Date: 08 September 2024
Orbit: 754 x 777 km, 74.1° (Epoch: 03 October)

Event Time Altitude Azimuth Distance (km) Brightness Sun altitude
Exits shadow 12:16:23 22° 235° (SW) 1,606 5.1 -15.1°
Maximum altitude 12:19:11 39° 291° (WNW) 1,112 4.5 -14.6°
Drops below altitude 10° 12:24:02 10° 0° (N) 2,282 6.7 -13.6°
Sets 12:26:33 0° 8° (N) 3,210 7.5 -13.1°
